Simultaneous Nadir Overpasses (SNOs) Predictions

Prediction of SNOs between GOES-15 and NPP Satellite Orbit:

Table of predicted SNOs for the next 14.0 days since TLE Epoch: 2/2/2013
Index Date Time (GOES-15) GOES-15 Lat,Lon NPP Lat,Lon Distance(km) Time Diff (sec)
1 02/02/2013 22:25:50 0.08,-134.56 -0.24,-135.93 156.35 80
2 02/03/2013 22:09:47 0.08,-134.61 0.77,-131.40 364.63 80
3 02/05/2013 10:31:37 -0.07,-134.73 0.35,-136.69 223.23 80
4 02/06/2013 10:10:14 -0.07,-134.77 -0.66,-132.16 297.14 80
5 02/07/2013 22:34:52 0.06,-134.77 -0.53,-137.47 307.48 80
6 02/08/2013 22:16:08 0.06,-134.81 0.49,-132.95 212.87 80
7 02/10/2013 10:37:58 -0.06,-134.93 0.68,-138.22 375.37 80
8 02/11/2013 10:16:34 -0.06,-134.96 -0.34,-133.69 144.70 80
9 02/12/2013 22:41:13
